Regional Weather Roundup
Issued by NWS

Home | Current Version | Previous Version | Text Only | Print | Product List | Glossary On
Versions: 1 2 3 4 5 6 7 8 9 10 11 12 13 14 15 16 17 18 19 20 21 22 23 24 25 26 27 28 29 30 31 32 33 34 35 36 37 38 39 40 41 42 43 44 45 46 47 48 49 50
000
ASUS44 KLIX 272013
RWRLA
LOUISIANA WEATHER ROUNDUP
NATIONAL WEATHER SERVICE NEW ORLEANS LA
300 PM CDT MON MAR 27 2017

NOTE: "FAIR" INDICATES FEW OR NO CLOUDS BELOW 12,000 FEET WITH NO
      SIGNIFICANT WEATHER AND/OR OBSTRUCTIONS TO VISIBILITY.
      SKY/WX - SKY CONDITION AND SIGNIFICANT WEATHER.
      TMP - AIR TEMPERATURE.    DP   - DEWPOINT TEMPERATURE.
      RH  - RELATIVE HUMIDITY.  PRES - PRESSURE.
      HX  - HEAT INDEX.         WCI  - WIND CHILL INDEX.

*  THESE STATIONS ARE NOT NWS OR FAA STATIONS AND ARE NOT UNDER
   NWS QUALITY CONTROL.

LAZ040-048-061>063-065-066-069-272100-
SOUTHEAST LOUISIANA

CITY           SKY/WX    TMP DP  RH WIND       PRES   REMARKS
N.O. INTL ARPT MOSUNNY   81  64  56 S16G24    29.96F
N.O. LAKEFRONT LGT RAIN  78  69  73 S15       29.97F
N.O. DOWNTOWN*   N/A     81  66  60 S12G21    29.98F
RESERVE*       FAIR      84  63  49 S16       29.96F
SLIDELL        CLOUDY    82  68  62 S15G23    29.97S
BATON ROUGE    PTSUNNY   82  60  47 S17       29.93F
BOOTHVILLE     PTSUNNY   77  71  82 S14G23    30.00F
BELLE CHASSE   PTSUNNY   82  69  64 S16       29.97F
BOGALUSA*      NOT AVBL
GALLIANO*      MOCLDY    81  67  63 S17       29.98F
NEW ROADS*       N/A     80  64  58 S14G22    29.93F
GONZALES*      MOCLDY    82  64  53 S16       29.93F
HAMMOND*       PTSUNNY   82  61  47 S15G22    29.95F
HOUMA*         PTSUNNY   79  70  73 SE13G18   29.98F
PORT FOURCHON* MOCLDY    77  72  83 S15       29.97F

$$

LAZ041-044-053-054-272100-
SOUTHWEST LOUISIANA

CITY           SKY/WX    TMP DP  RH WIND       PRES   REMARKS
LAKE CHARLES   PTSUNNY   77  68  73 S12G21    29.92F
LAFAYETTE      PTSUNNY   82  66  58 S14G23    29.95S
PATTERSON      PTSUNNY   81  68  64 S12G20    29.96F
SALT POINT       N/A     77  70  79 S8        29.94F
NEW IBERIA     PTSUNNY   80  65  59 S17G24    29.95F
CHENAULT AIRPK PTSUNNY   81  70  69 S13G20    29.93F

$$

LAZ027-028-272100-
CENTRAL LOUISIANA

CITY           SKY/WX    TMP DP  RH WIND       PRES   REMARKS
FORT POLK      PTSUNNY   81  69  67 S17       29.88F
ALEXANDRIA INT LGT RAIN  81  67  62 S13       29.86F
ALEXANDRIA     PTSUNNY   80  66  62 SW14      29.88F

$$

LAZ001-002-272100-
NORTHWEST LOUISIANA

CITY           SKY/WX    TMP DP  RH WIND       PRES   REMARKS
SHREVEPORT     CLOUDY    81  66  60 SW12      29.86F
BARKSDALE AFB  MOSUNNY   79  65  62 SW13      29.86F
DTN SHREVEPORT CLOUDY    78  65  63 W10       29.86F

$$

LAZ014-016-272100-
NORTHEAST LOUISIANA

CITY           SKY/WX    TMP DP  RH WIND       PRES   REMARKS
MONROE         PTSUNNY   84  65  52 SW10G20   29.85F
TALLULAH       LGT RAIN  77  64  64 MISG      29.88F

$$




USA.gov is the U.S. government's official web portal to all federal, state and local government web resources and services.